Weather History for Eau Claire, WI

Change the Weather History Date:

Tuesday, August 27, 2013

  Actual Average Record
Temperature  
Mean Temperature 85 °F 68 °F  
Max Temperature 96 °F 79 °F 96 °F (2013)
Min Temperature 73 °F 57 °F 40 °F (1915)
Degree Days  
Heating Degree Days 0 1  
Month to date heating degree days 12 22  
Since 1 June heating degree days 101 95  
Since 1 July heating degree days 38 33  
Cooling Degree Days 20 4  
Month to date cooling degree days 151 145  
Year to date cooling degree days 515 511  
Since 1 June cooling degree days 483 479  
Growing Degree Days 34 (Base 50)    
Moisture  
Dew Point 73 °F    
Average Humidity 68    
Maximum Humidity 87    
Minimum Humidity 49    
Precipitation  
Precipitation 0.00 in 0.13 in 1.26 in (1944)
Month to date precipitation 1.09 3.95  
Year to date precipitation 27.64 21.60  
Snow  
Snow 0.00 in 0.00 in 0.00 in ()
Month to date snowfall 0.0 0.0  
Since 1 June snowfall 0.0 0.0  
Since 1 July snowfall 0.0 0.0  
Snow Depth 0.00 in    
Sea Level Pressure  
Sea Level Pressure 29.81 in    
Wind  
Wind Speed 6 mph (WNW)    
Max Wind Speed 15 mph    
Max Gust Speed 17 mph    
Visibility 10 miles    
Events      
T = Trace of Precipitation, MM = Missing Value Source: NWS Daily Summary

Daily Weather History Graph

Daily Weather History Graph

Search for Another Location

Airport:

Trip Planner

Search our weather history database for the weather conditions in past years. The results will help you decide how hot, cold, wet, or windy it might be!

Date:

Astronomy

Aug. 27, 2013 Rise Set
Actual Time 6:22 AM CDT 7:51 PM CDT
Civil Twilight 5:51 AM CDT 8:21 PM CDT
Nautical Twilight 5:14 AM CDT 8:58 PM CDT
Astronomical Twilight 4:35 AM CDT 9:38 PM CDT
Moon 11:25 PM CDT (8/27) 1:40 PM CDT (8/27)
Length of Visible Light 14h 29m
Length of Day
13h 28m
Waning Gibbous, 57% of the Moon is Illuminated
Aug 27
Waning Gibbous
Aug 28
Last Quarter
Sep 5
New
Sep 12
First Quarter
Sep 19
Full

Hourly Weather History & Observations

Time (CDT) Temp. Heat Index Dew Point Humidity Pressure Visibility Wind Dir Wind Speed Gust Speed Precip Events Conditions
12:56 AM 80.1 °F 85.1 °F 75.0 °F 85% 29.86 in 10.0 mi Calm Calm - N/A   Clear
1:56 AM 80.1 °F 84.5 °F 73.9 °F 81% 29.83 in 10.0 mi South 4.6 mph - N/A   Clear
2:56 AM 80.1 °F 84.2 °F 73.0 °F 79% 29.81 in 10.0 mi SSW 8.1 mph - N/A   Clear
3:56 AM 79.0 °F - 72.0 °F 79% 29.81 in 10.0 mi SSW 5.8 mph - N/A   Clear
4:56 AM 79.0 °F - 71.1 °F 77% 29.81 in 10.0 mi SSW 6.9 mph - N/A   Clear
5:56 AM 77.0 °F - 71.1 °F 82% 29.81 in 10.0 mi SSW 3.5 mph - N/A   Clear
6:56 AM 78.1 °F - 71.1 °F 79% 29.80 in 10.0 mi SSW 4.6 mph - N/A   Clear
7:56 AM 80.1 °F 83.6 °F 71.1 °F 74% 29.81 in 10.0 mi SSW 5.8 mph - N/A   Clear
8:56 AM 82.9 °F 87.0 °F 70.0 °F 65% 29.79 in 10.0 mi SW 10.4 mph - N/A   Clear
9:56 AM 86.0 °F 91.5 °F 71.1 °F 61% 29.79 in 10.0 mi SW 10.4 mph - N/A   Clear
10:56 AM 88.0 °F 93.8 °F 71.1 °F 57% 29.80 in 10.0 mi WNW 10.4 mph - N/A   Clear
11:56 AM 89.1 °F 96.0 °F 72.0 °F 57% 29.80 in 10.0 mi West 5.8 mph - N/A   Clear
12:56 PM 91.0 °F 98.2 °F 72.0 °F 53% 29.79 in 10.0 mi NW 8.1 mph - N/A   Clear
1:56 PM 93.0 °F 101.9 °F 73.0 °F 52% 29.78 in 10.0 mi WNW 8.1 mph - N/A   Clear
2:56 PM 93.0 °F 100.7 °F 72.0 °F 50% 29.77 in 10.0 mi Calm Calm - N/A   Partly Cloudy
3:56 PM 93.9 °F 103.4 °F 73.0 °F 51% 29.77 in 10.0 mi Variable 3.5 mph - N/A   Scattered Clouds
4:56 PM 90.0 °F 102.5 °F 77.0 °F 65% 29.78 in 10.0 mi North 9.2 mph - N/A   Scattered Clouds
5:56 PM 89.1 °F 101.4 °F 77.0 °F 67% 29.80 in 10.0 mi NNE 9.2 mph - N/A   Mostly Cloudy
6:56 PM 84.9 °F 93.3 °F 75.0 °F 72% 29.81 in 10.0 mi NNE 8.1 mph - N/A   Overcast
7:56 PM 82.9 °F 90.2 °F 75.0 °F 77% 29.83 in 10.0 mi NNE 4.6 mph - N/A   Mostly Cloudy
8:56 PM 81.0 °F 86.2 °F 73.9 °F 79% 29.85 in 10.0 mi NNE 4.6 mph - N/A   Partly Cloudy
9:56 PM 79.0 °F - 73.0 °F 82% 29.86 in 10.0 mi NNE 4.6 mph - N/A   Clear
10:56 PM 75.9 °F - 72.0 °F 87% 29.88 in 10.0 mi North 3.5 mph - N/A   Clear
11:56 PM 75.0 °F - 72.0 °F 90% 29.88 in 10.0 mi NNE 3.5 mph - N/A   Clear